FW1466 Weather Reports


Display with metric or nautical units.
time (UTC)temp
F
wind
direction
speed
MPH
gust
MPH
rain 1hr
in
rain 24hr
in
rain mn
in
humidity
%
barometer
mb
20260510060016 47 42 0.0 0.0 0.00 0.00 0.00 77 1013.1
20260510054506 47 42 0.0 0.0 0.00 0.00 0.00 76 1013.1
20260510053003 48 42 0.0 2.0 0.00 0.00 0.00 74 1012.9
20260510051701 48 60 0.0 3.0 0.00 0.00 0.00 72 1012.8
20260510044556 50 61 0.0 2.0 0.00 0.00 0.00 68 1012.2
20260510043139 51 61 0.0 0.0 0.00 0.00 0.00 66 1011.9
20260510041554 52 61 0.0 0.0 0.00 0.00 0.00 63 1011.5
20260510040050 54 61 0.0 1.0 0.00 0.00 0.00 60 1011.5
20260510034553 55 61 0.0 0.0 0.00 0.00 0.00 57 1011.2
20260510033050 56 61 1.0 2.0 0.00 0.00 0.00 56 1011.1
20260510031646 57 61 0.0 3.0 0.00 0.00 0.00 55 1011.0
20260510030043 58 56 1.0 4.0 0.00 0.00 0.00 53 1010.8
20260510024543 60 337 0.0 2.0 0.00 0.00 0.00 49 1010.1
20260510023047 60 337 1.0 4.0 0.00 0.00 0.00 47 1009.8
20260510021542 61 336 1.0 4.0 0.00 0.00 0.00 45 1009.4
20260510020033 62 350 1.0 4.0 0.00 0.00 0.00 44 1008.8
20260510014532 63 346 2.0 6.0 0.00 0.00 0.00 44 1008.5
20260510013027 64 336 2.0 5.0 0.00 0.00 0.00 43 1008.2
20260510011526 65 340 1.0 6.0 0.00 0.00 0.00 43 1007.8
20260510010026 66 325 4.0 15.0 0.00 0.00 0.00 41 1007.6
20260510004522 67 342 3.0 9.0 0.00 0.00 0.00 42 1007.1
20260510003020 68 335 4.0 9.0 0.00 0.00 0.00 39 1006.9
20260510001518 69 350 4.0 10.0 0.00 0.00 0.00 38 1006.5
20260510000017 70 286 5.0 15.0 0.00 0.00 0.00 38 1006.2
20260509234519 70 316 5.0 13.0 0.00 0.00 0.00 36 1006.1
20260509233016 70 315 6.0 12.0 0.00 0.00 0.00 38 1005.8
20260509231515 70 292 2.0 9.0 0.00 0.00 0.00 40 1005.7
20260509230013 71 306 2.0 10.0 0.00 0.00 0.00 45 1005.4
20260509224512 71 324 3.0 9.0 0.00 0.00 0.00 41 1005.2
20260509223012 72 286 5.0 12.0 0.00 0.00 0.00 40 1005.1
20260509221511 71 305 4.0 9.0 0.00 0.00 0.00 43 1005.0
20260509220010 71 297 3.0 8.0 0.00 0.00 0.00 42 1004.9
20260509214510 72 269 2.0 11.0 0.00 0.00 0.00 42 1004.6
20260509213009 72 331 2.0 17.0 0.00 0.00 0.00 40 1004.7
20260509211510 73 298 4.0 11.0 0.00 0.00 0.00 38 1004.4
20260509210008 73 344 6.0 13.0 0.00 0.00 0.00 36 1004.5
20260509204507 74 267 4.0 12.0 0.00 0.00 0.00 37 1004.2
20260509203019 73 311 3.0 13.0 0.00 0.00 0.00 38 1004.2
20260509201505 72 306 3.0 13.0 0.00 0.00 0.00 38 1004.3
20260509200005 72 312 5.0 11.0 0.00 0.00 0.00 35 1004.3
20260509194505 71 305 5.0 12.0 0.00 0.00 0.00 35 1004.5
20260509193004 71 346 4.0 12.0 0.00 0.00 0.00 36 1004.3
20260509191502 72 296 3.0 13.0 0.00 0.00 0.00 37 1004.4
20260509190001 72 270 3.0 17.0 0.00 0.00 0.00 37 1004.4
20260509184600 74 278 4.0 11.0 0.00 0.00 0.00 34 1004.2
20260509183059 71 11 4.0 10.0 0.00 0.00 0.00 36 1004.3
20260509181609 72 290 3.0 11.0 0.00 0.00 0.00 36 1004.1
20260509180056 72 351 3.0 12.0 0.00 0.00 0.00 39 1004.0
20260509174556 73 286 3.0 10.0 0.00 0.00 0.00 38 1004.2
20260509173106 73 321 5.0 9.0 0.00 0.00 0.00 39 1004.4
20260509171603 72 271 3.0 13.0 0.00 0.00 0.00 39 1004.3
20260509170050 73 272 2.0 8.0 0.00 0.00 0.00 42 1004.1
20260509164546 71 270 1.0 6.0 0.00 0.00 0.00 54 1004.3
20260509163054 71 282 2.0 7.0 0.00 0.00 0.00 53 1004.3
20260509161541 69 233 0.0 4.0 0.00 0.00 0.00 60 1004.3
20260509160038 69 234 0.0 4.0 0.00 0.00 0.00 66 1004.4
20260509154535 67 159 2.0 6.0 0.00 0.00 0.00 67 1004.7
20260509153031 66 165 1.0 6.0 0.00 0.00 0.00 68 1004.6
20260509151526 65 236 1.0 5.0 0.00 0.00 0.00 70 1004.7
20260509150022 65 282 1.0 4.0 0.00 0.00 0.00 74 1004.8
20260509144518 63 216 1.0 4.0 0.00 0.00 0.00 75 1004.8
20260509143014 62 259 1.0 6.0 0.00 0.00 0.00 80 1004.8
20260509141509 61 297 0.0 5.0 0.00 0.00 0.00 80 1004.5
20260509140007 60 305 0.0 6.0 0.00 0.00 0.00 83 1004.9
20260509134502 59 196 0.0 3.0 0.00 0.00 0.00 85 1004.8
20260509133105 58 153 0.0 5.0 0.00 0.00 0.00 88 1004.7
20260509131555 56 355 0.0 3.0 0.00 0.00 0.00 91 1004.7
20260509130049 55 236 1.0 4.0 0.00 0.00 0.00 92 1004.6
20260509124547 54 209 1.0 6.0 0.00 0.00 0.00 94 1004.7
20260509123040 53 272 1.0 6.0 0.00 0.00 0.00 96 1004.7
20260509121541 52 257 1.0 3.0 0.00 0.00 0.00 97 1004.7
20260509120036 51 194 0.0 3.0 0.00 0.00 0.00 97 1004.6
20260509114535 51 205 0.0 0.0 0.00 0.00 0.00 97 1004.6
20260509113030 50 205 0.0 0.0 0.00 0.00 0.00 97 1004.4
20260509111530 50 205 0.0 0.0 0.00 0.00 0.00 97 1004.3
20260509110026 50 206 0.0 0.0 0.00 0.00 0.00 96 1004.3
20260509104525 51 202 0.0 0.0 0.00 0.00 0.00 96 1004.1
20260509103024 51 208 0.0 7.0 0.00 0.00 0.00 96 1004.1
20260509101523 51 186 0.0 3.0 0.00 0.00 0.00 97 1004.0
20260509100022 51 170 0.0 3.0 0.00 0.00 0.00 97 1004.1
20260509094520 51 117 0.0 2.0 0.00 0.00 0.00 96 1004.4
20260509093018 51 117 0.0 0.0 0.00 0.00 0.00 96 1004.4
20260509091526 51 114 0.0 1.0 0.00 0.00 0.00 96 1004.6
20260509090015 51 114 0.0 2.0 0.00 0.00 0.00 96 1004.7
20260509084520 51 114 0.0 2.0 0.00 0.00 0.00 95 1004.7
20260509083013 51 135 0.0 1.0 0.00 0.00 0.00 95 1004.9
20260509081512 51 138 0.0 0.0 0.00 0.00 0.00 95 1004.9
20260509080022 51 138 0.0 1.0 0.00 0.00 0.00 94 1004.9
20260509074511 51 138 0.0 0.0 0.00 0.00 0.00 94 1004.7
20260509073018 51 138 0.0 1.0 0.00 0.00 0.00 93 1005.0
20260509071506 51 138 0.0 2.0 0.00 0.00 0.00 93 1005.1
20260509070005 51 136 0.0 1.0 0.00 0.00 0.00 92 1005.5
20260509064503 52 136 0.0 1.0 0.00 0.00 0.00 92 1005.7
20260509063001 52 136 0.0 2.0 0.00 0.00 0.00 92 1005.7
20260509061600 52 135 0.0 0.0 0.00 0.00 0.00 91 1005.9